Stove Prairie

Current Conditions

Time08/18/2019 01:00 AM MST
Location40.619167,-105.356944
Elevation7,349 FT
Air Temp61°F
Surface Temp67°F
Dew Point Temp31°F
Relative Humidity32%
Visibility6,562 FT
Pressure777 MB
PrecipitationNone

Click a photo to enlarge.

0 mph
Wind from @ 0 mph

Past 24 Hours

All Data

Previous 24h observations for Stove Prairie
Time Air Temp
(°F)
Surface
(°F)
Dew Point
(°F)
Relative
Humidity
Precip. Wind Direction Wind Speed (mph) Visibility (ft) Pressure
(mb)
01:00 AM61673132NoneN06,562777
12:45 AM60693032NoneN06,562777
12:30 AM61703131NoneN06,562777
12:15 AM61703032NoneNNW16,562777
12:00 AM61693031NoneN06,562777
11:45 PM62693031NoneNW16,562777
11:30 PM62713030NoneW16,562776
11:15 PM62703130NoneN06,562776
11:00 PM64693129NoneN06,562776
10:45 PM65713127NoneWSW26,562776
10:30 PM65733027NoneWNW26,562776
10:15 PM67733126NoneSSW26,562776
10:00 PM67743126NoneS26,562776
09:45 PM68753125NoneS36,562776
09:30 PM67753126NoneS26,562776
09:15 PM67753227NoneS26,562776
09:00 PM68763226NoneWSW36,562776
08:45 PM67763227NoneNNW36,562776
08:30 PM67783329NoneW66,562775
08:15 PM65773534NoneWSW56,562776
08:00 PM65763634NoneSW46,562776
07:45 PM66793531NoneWNW56,562776
07:30 PM66793633NoneW46,562776
07:15 PM66813632NoneSSW26,562776
07:00 PM66823531NoneWSW46,562776
06:45 PM67823531NoneNW56,562776
06:30 PM67823530NoneNW96,562776
06:15 PM69843528NoneNNW116,562776
06:00 PM71843426NoneNNW106,562775
05:45 PM75883019NoneNW96,562775
05:30 PM76913018NoneNW96,562775
05:15 PM76933119NoneWNW56,562775
05:00 PM76913119NoneNW76,562774
04:45 PM76943018NoneNW66,562774
04:30 PM73973323NoneSW46,562775
04:15 PM72943021NoneWSW36,562775
04:00 PM72953021NoneSW56,562775
03:45 PM72992819NoneWSW56,562775
03:30 PM71983022NoneW56,562775
03:15 PM721043323NoneWSW76,562776
03:00 PM731123323NoneWNW66,562775
02:45 PM741133323NoneNW126,562775
02:30 PM731043626NoneW36,562775
02:15 PM71983526NoneSSW66,562775
02:00 PM731113525NoneWSW36,562776
01:45 PM721063425NoneSW56,562776
01:30 PM711093526NoneNW106,562776
01:15 PM701033527NoneNW126,562776
01:00 PM751083322NoneNNW96,562776
12:45 PM751103322NoneWNW66,562775
12:30 PM751083322NoneWNW56,562775
12:15 PM731023424NoneWNW46,562775
12:00 PM69943629NoneWSW36,562776
11:45 AM66793532NoneNW96,562777
11:30 AM66763531NoneNW96,562777
11:15 AM67753430NoneWNW106,562777
11:00 AM67763328NoneWSW46,562776
10:45 AM69743226NoneNW116,562776
10:30 AM69743125NoneNW76,562776
10:15 AM69753225NoneNW86,562775
10:00 AM69743326NoneNW66,562776
09:45 AM68743125NoneWNW66,562776
09:30 AM69753125NoneNW56,562775
09:15 AM68743226NoneSW26,562775
09:00 AM68803327NoneSW36,562776
08:45 AM66733430NoneSSE36,562776
08:30 AM67713328NoneWSW46,562776
08:15 AM67743227NoneNNW76,562776
08:00 AM65743634NoneNNE16,562776
07:45 AM61713335NoneE16,562776
07:30 AM59633338NoneN06,562776
07:15 AM58703136NoneSE26,562776
07:00 AM57653239NoneN06,562776
06:45 AM55623141NoneN46,562776
06:30 AM57663137NoneE16,562776
06:15 AM57633137NoneN06,562776
06:00 AM57633137NoneNW26,562776
05:45 AM58653136NoneE36,562776
05:30 AM59673133NoneE26,562776
05:15 AM61663132NoneE26,562776
05:00 AM60663134NoneSE26,562776
04:45 AM60673133NoneN06,562776
04:30 AM60653133NoneSSE16,562776
04:15 AM61703131NoneWNW26,562776
04:00 AM61703233NoneSE16,562776
03:45 AM60693234NoneE26,562776
03:30 AM59693235NoneESE16,562776
03:15 AM60693235NoneN06,562776
03:00 AM59693135NoneENE26,562776
02:45 AM59693135NoneN06,562776
02:30 AM59673135NoneN06,562776
02:15 AM60683134NoneNNW26,562776
02:00 AM61713233NoneE26,562776
01:45 AM62693232NoneN06,562776
01:30 AM62733132NoneN06,562776

Red Feather Lakes

Current Conditions

Time08/18/2019 01:00 AM MST
Location40.790278,-105.574167
Elevation8,238 FT
Air Temp58°F
Surface Temp55°F
Dew Point Temp30°F
Relative Humidity35%
Visibility6,562 FT
Pressure752 MB
PrecipitationNone

Click a photo to enlarge.

288°8 mph
Wind from @ 8 mph

Past 24 Hours

All Data

Previous 24h observations for Red Feather Lakes
Time Air Temp
(°F)
Surface
(°F)
Dew Point
(°F)
Relative
Humidity
Precip. Wind Direction Wind Speed (mph) Visibility (ft) Pressure
(mb)
01:00 AM58553035NoneWNW86,562752
12:45 AM59553034NoneWNW86,562752
12:30 AM59553034NoneWNW96,562752
12:15 AM60543133NoneW96,562752
12:00 AM60553133NoneWNW96,562752
11:45 PM59563034NoneWNW116,562752
11:30 PM59573033NoneW136,562752
11:15 PM58573034NoneWNW96,562752
11:00 PM58583034NoneWNW86,562752
10:45 PM59573135NoneWNW76,562752
10:30 PM59573135NoneNW66,562752
10:15 PM61583133NoneWSW136,562752
10:00 PM61593234NoneWSW156,562752
09:45 PM61593234NoneWSW166,562752
09:30 PM61593334NoneWSW196,562752
09:15 PM62603130NoneSW176,562752
09:00 PM61613133NoneW116,562751
08:45 PM61633335NoneW156,562751
08:30 PM59633439NoneWSW176,562751
08:15 PM59643541NoneWSW176,562751
08:00 PM60643539NoneWSW186,562751
07:45 PM61653437NoneWSW216,562751
07:30 PM61673436NoneWSW166,562751
07:15 PM63723130NoneW176,562751
07:00 PM62723333NoneWNW86,562751
06:45 PM62743334NoneWNW96,562751
06:30 PM61773537NoneWNW66,562751
06:15 PM58733745NoneWNW76,562752
06:00 PM58613645Light RainNNW136,562752
05:45 PM63743434NoneNW266,562752
05:30 PM63783433NoneNNW216,562751
05:15 PM69793326NoneNW316,562751
05:00 PM70863123NoneWNW186,562750
04:45 PM70923123NoneWNW236,562751
04:30 PM71943123NoneW196,562751
04:15 PM69943125NoneW276,562750
04:00 PM69933124NoneW366,562751
03:45 PM68953125NoneW286,562750
03:30 PM67913126NoneW196,562750
03:15 PM66913127NoneW296,562751
03:00 PM67983227NoneW336,562751
02:45 PM66943127NoneW316,562751
02:30 PM67923328NoneWNW416,562751
02:15 PM67933227NoneWNW316,562751
02:00 PM65833228NoneW266,562751
01:45 PM65923330NoneW296,562751
01:30 PM63763232NoneW346,562752
01:15 PM63943434NoneWSW206,562751
01:00 PM58693746Light RainWNW206,562753
12:45 PM68903327NoneWNW336,562752
12:30 PM68973024NoneWNW256,562751
12:15 PM67923227NoneW346,562751
12:00 PM67893228NoneWNW246,562751
11:45 AM62853333NoneWSW206,562751
11:30 AM61722931NoneW346,562753
11:15 AM64773331NoneW316,562752
11:00 AM65773230NoneW196,562752
10:45 AM67853228NoneWSW336,562752
10:30 AM66783127NoneWSW336,562752
10:15 AM67813227NoneW246,562751
10:00 AM67783228NoneW286,562751
09:45 AM67753227NoneW256,562751
09:30 AM66723127NoneW266,562751
09:15 AM66683127NoneWNW176,562751
09:00 AM66663127NoneW176,562751
08:45 AM65623128NoneW216,562751
08:30 AM64583130NoneWSW96,562751
08:15 AM63563129NoneSW166,562751
08:00 AM63553130NoneW116,562752
07:45 AM62543130NoneW136,562751
07:30 AM61523031NoneW136,562751
07:15 AM60513132NoneWSW136,562751
07:00 AM60513032NoneWSW136,562751
06:45 AM56552935NoneW96,562752
06:30 AM55552936NoneNNW36,562751
06:15 AM55542937NoneN26,562751
06:00 AM56522834NoneNW26,562751
05:45 AM55552836NoneWSW96,562751
05:30 AM55552938NoneNW46,562751
05:15 AM55542937NoneNNW36,562751
05:00 AM56543037NoneNW46,562751
04:45 AM56553038NoneWNW46,562751
04:30 AM55543038NoneNW46,562751
04:15 AM56543037NoneW66,562751
04:00 AM55512936NoneW66,562752
03:45 AM56542936NoneW76,562752
03:30 AM56543037NoneW66,562752
03:15 AM56543037NoneW76,562752
03:00 AM56543037NoneW76,562752
02:45 AM56553038NoneW86,562752
02:30 AM55563139NoneW86,562752
02:15 AM56553139NoneW66,562752
02:00 AM56553138NoneW66,562752
01:45 AM56553138NoneW66,562752
01:30 AM57563138NoneWSW56,562752

Pinewood Reservoir

Current Conditions

Time08/18/2019 01:00 AM MST
Location40.3647,-105.2867
Elevation6,580 FT
Air Temp60°F
Surface Temp65°F
Dew Point Temp34°F
Relative Humidity37%
Visibility6,562 FT
Pressure792 MB
PrecipitationNone
Level of Grip82.0
State of Surface4.0

Click a photo to enlarge.

213°6 mph
Wind from @ 6 mph

Past 24 Hours

All Data

Previous 24h observations for Pinewood Reservoir
Time Air Temp
(°F)
Surface
(°F)
Dew Point
(°F)
Relative
Humidity
Precip. Wind Direction Wind Speed (mph) Visibility (ft) Pressure
(mb)
Level of GripState Surface
01:00 AM60653437NoneSSW66,562792824
12:45 AM62643537NoneWSW76,562792824
12:30 AM62613638NoneSW66,562792824
12:15 AM66663531NoneWSW86,562792824
12:00 AM65683431NoneWSW96,562792824
11:45 PM64673433NoneWSW96,562792824
11:30 PM62653535NoneSW66,562792824
11:15 PM67703429NoneW56,562792824
11:00 PM67703429NoneW56,562792824
10:45 PM67713430NoneWSW36,562792824
10:30 PM66693430NoneW46,562792824
10:15 PM70723326NoneSW36,562792824
10:00 PM70713426NoneENE56,562792824
09:45 PM69723427NoneSW116,562792824
09:30 PM70713427NoneSW256,562791824
09:15 PM70723527NoneWSW336,562791824
09:00 PM70723527NoneSW276,562792824
08:45 PM69723629NoneWSW266,562791824
08:30 PM68733731NoneSW236,562791824
08:15 PM68733631NoneWSW256,562791824
08:00 PM69753629NoneWSW196,562791824
07:45 PM70763629NoneW96,562791824
07:30 PM70773629NoneW76,562791824
07:15 PM70773729NoneW106,562791824
07:00 PM71783628NoneWNW76,562791824
06:45 PM73803424NoneW116,562791824
06:30 PM73813323NoneWSW296,562790824
06:15 PM73803323NoneWSW346,562790824
06:00 PM73813424NoneSW486,562789824
05:45 PM76843623NoneWSW326,562790824
05:30 PM77903724NoneWSW256,562790824
05:15 PM76923725NoneWSW196,562790824
05:00 PM75933826NoneWSW216,562790824
04:45 PM67833834NoneWSW166,562790824
04:30 PM67783834NoneWSW176,562790824
04:15 PM67773834NoneWSW216,562790824
04:00 PM68763732NoneSW316,562791824
03:45 PM69793833NoneWSW256,562791824
03:30 PM71823830NoneWSW316,562791824
03:15 PM72894031NoneWSW206,562791824
03:00 PM73954031NoneWSW186,562791824
02:45 PM71913932NoneWSW226,562790824
02:30 PM64764346NoneWSW186,562791796
02:15 PM66713937Light RainWSW346,562791825
02:00 PM72903728NoneWSW256,562791824
01:45 PM77993723NoneW146,562790824
01:30 PM771073521NoneSSW56,562790824
01:15 PM771033522NoneSSW106,562791824
01:00 PM771063421NoneSSW106,562791824
12:45 PM771173522NoneWSW66,562791824
12:30 PM761173623NoneSW136,562791824
12:15 PM751133624NoneWSW186,562791824
12:00 PM751123725NoneWSW216,562791824
11:45 AM761103724NoneW206,562792824
11:30 AM771093724NoneWSW186,562792824
11:15 AM771083724NoneWSW186,562791824
11:00 AM761063522NoneSW156,562791824
10:45 AM771023522NoneW76,562792824
10:30 AM75983523NoneWSW136,562791824
10:15 AM76943523NoneSW186,562791824
09:45 AM73853526NoneSW136,562791824
09:30 AM72823526NoneWSW156,562791824
09:15 AM72803728NoneSW216,562791824
09:00 AM70803629NoneWSW126,562791824
08:45 AM69703529NoneWSW156,562792824
08:30 AM69733629NoneW196,562791824
08:15 AM64713940NoneWSW86,562792824
08:00 AM65693533NoneWSW46,562791824
07:45 AM64703432NoneSW56,562791824
07:30 AM63693332NoneSW36,562791824
07:15 AM61663234NoneSSW46,562792824
07:00 AM63613434NoneSSW66,562792824
06:45 AM60623235NoneS46,562791824
06:30 AM64603230NoneWSW56,562791824
06:15 AM62623233NoneSSW46,562791824
06:00 AM63593332NoneWSW56,562791824
05:45 AM60633336NoneW66,562791824
05:30 AM58603440NoneSW66,562791824
05:15 AM57603441NoneSSW56,562791824
05:00 AM59613439NoneWSW46,562791824
04:45 AM60603438NoneSW46,562791824
04:30 AM62633435NoneSSW36,562791824
04:15 AM61623436NoneSW56,562791824
04:00 AM61623436NoneSSW56,562791824
03:45 AM62633436NoneSW46,562791824
03:30 AM61623437NoneSSW46,562792824
03:15 AM62623435NoneSW56,562792824
03:00 AM63633433NoneWSW56,562792824
02:45 AM65653432NoneWSW56,562792824
02:30 AM66663431NoneW66,562792824
02:15 AM66643430NoneWSW66,562792824
02:00 AM65653431NoneWSW86,562792824
01:45 AM65673331NoneW96,562792824
01:30 AM63643434NoneSW66,562792824

Masonville

Current Conditions

Time08/18/2019 01:00 AM MST
Location40.4875,-105.2108
Elevation5,387 FT
Air Temp67°F
Surface Temp70°F
Dew Point Temp34°F
Relative Humidity30%
Visibility6,562 FT
Pressure832 MB
PrecipitationNone

Click a photo to enlarge.

328°5 mph
Wind from @ 5 mph

Past 24 Hours

All Data

Previous 24h observations for Masonville
Time Air Temp
(°F)
Surface
(°F)
Dew Point
(°F)
Relative
Humidity
Precip. Wind Direction Wind Speed (mph) Visibility (ft) Pressure
(mb)
01:00 AM67703430NoneNNW56,562832
12:45 AM68703429NoneNNW56,562832
12:30 AM68713429NoneNNW36,562832
12:15 AM67713530NoneNNW46,562832
12:00 AM66703531NoneNNE36,562832
11:45 PM68713529NoneNNE26,562832
11:30 PM69713528NoneNW46,562831
11:15 PM71733425NoneNNW66,562831
11:00 PM74753423NoneN06,562831
10:45 PM76743522NoneESE26,562831
10:30 PM76763421NoneNE66,562831
10:15 PM78783420NoneWSW36,562831
10:00 PM78783420NoneWSW86,562831
09:45 PM78783521NoneSSW106,562831
09:30 PM78793521NoneSW96,562831
09:15 PM78793622NoneSSW166,562831
09:00 PM77793723NoneSSW66,562831
08:45 PM77803723NoneSSW66,562830
08:30 PM76793826NoneSSE76,562830
08:15 PM77813724NoneWSW106,562831
08:00 PM77813825NoneWSW156,562831
07:30 PM77833825NoneNNW66,562830
07:15 PM77833925NoneNW96,562830
07:00 PM77843824NoneWNW136,562830
06:45 PM78843824NoneWNW136,562830
06:31 PM80843722NoneWNW196,562830
06:15 PM81863619NoneSW136,562830
06:00 PM79863925NoneESE26,562829
05:45 PM80323823N10829
05:30 PM79903823NoneE30829
05:16 PM32323224SE40829
05:00 PM79984024NoneESE36,562829
04:45 PM77943825NoneW46,562830
04:30 PM77873824NoneSW56,562830
04:15 PM78863723NoneSSW116,562830
03:45 PM80913621NoneW96,562830
03:30 PM82943821NoneWNW96,562830
03:15 PM82993821NoneSW96,562830
03:00 PM831023720NoneWSW86,562830
02:45 PM821093922NoneW76,562830
02:30 PM78883824NoneWSW186,562830
02:15 PM80873722NoneW156,562830
02:00 PM81903721NoneWNW186,562830
01:30 PM83953518NoneWNW146,562830
01:15 PM84993517NoneSW86,562830
01:00 PM851023618NoneS146,562830
12:46 PM84323517NoneSSW150830
12:30 PM831053518NoneW86,562830
12:15 PM831013719NoneSW66,562830
12:00 PM811053720NoneWSW86,562831
11:45 AM79903621NoneNW226,562831
11:30 AM80983721NoneNW186,562831
11:15 AM78823622NoneWNW166,562831
11:00 AM79813521NoneWNW136,562831
10:45 AM80813520NoneWSW156,562831
10:30 AM79803521NoneWSW86,562831
10:15 AM78813522NoneW106,562831
10:00 AM76793825NoneSE30831
09:45 AM75803927NoneESE46,562831
09:30 AM73814030NoneN06,562831
09:15 AM72783931NoneSE26,562831
09:00 AM71834439NoneESE36,562831
08:45 AM68734339NNE10831
08:30 AM70743932NoneNE16,562831
08:15 AM71753729NoneNW56,562831
08:00 AM67743834NoneENE26,562831
07:45 AM65683838NoneSE26,562831
07:30 AM66653937NoneSE26,562831
07:15 AM65683532NoneNW56,562831
07:00 AM65673532NoneNW76,562831
06:45 AM65673432NoneNW96,562831
06:30 AM65673532NoneWNW66,562831
06:15 AM67663430NoneNNW106,562831
06:00 AM65673432NoneNW126,562831
05:30 AM66673532NoneNW106,562831
05:15 AM65673532NoneWNW26,562831
05:00 AM65673532NoneWNW66,562831
04:45 AM66683531NoneNNW86,562831
04:30 AM67683531NoneNW86,562831
04:15 AM323232N00831
04:00 AM67693530NoneNW66,562831
03:45 AM68713529NoneWNW26,562831
03:30 AM67683530NoneNE26,562831
03:15 AM69703528NoneNNE46,562831
03:00 AM69713528NoneNW36,562831
02:45 AM69713528NoneNNW36,562831
02:30 AM67723530NoneNNW66,562831
02:15 AM65723533NoneNNW26,562831
02:00 AM64713534NoneNNE36,562831
01:45 AM65703533NoneNE26,562831
01:30 AM68723530NoneNNW36,562831

Time to refresh Minute(s) Second(s)